Dewpoint
41 41 41 41 40 40 40 40 39 39 38 38 38 37 35 35 34 33 36 34 33 33 33 33 33 33 35 40 41 41 41 41 40 40 40 39 39 38 38 38 37 37 36 36 35 35 35 35 34 34 34 34 34 35 35 35 35 35 36 36 37 38 38 39 40 41 41 41 41 41 41 41 40 40 40 40 40 40 40 40 40 40 40 40 41 41
40 40 41 40 40 39 39 39 38 38 37 37 37 36 33 32 31 32 32 34 34 33 32 32 32 32 31 38 40 40 40 40 40 39 39 39 38 38 37 37 36 35 35 34 34 34 33 33 33 33 33 34 34 34 34 34 34 34 34 34 35 35 36 37 38 38 39 39 40 40 39 39 39 39 39 39 39 39 39 40 40 40 40 40 40 40
39 39 39 39 39 38 38 38 37 35 36 35 35 33 31 30 31 31 31 33 33 33 31 30 31 31 30 35 38 39 39 39 39 39 38 38 37 36 36 35 34 34 33 33 33 33 33 33 33 33 33 33 33 34 34 34 34 34 34 33 33 33 34 34 35 36 37 37 38 38 38 38 38 38 38 38 38 38 38 39 39 39 39 39 39 40
39 38 39 39 38 38 38 36 34 33 34 33 32 31 29 30 30 30 30 30 30 31 30 28 28 29 30 33 36 38 38 38 38 38 37 36 35 35 34 33 33 33 33 33 33 33 33 33 33 33 33 33 33 33 33 34 34 33 33 33 33 33 33 33 33 33 34 35 35 36 36 36 36 37 37 37 37 38 38 38 38 38 38 38 38 38
38 38 38 38 37 37 36 34 33 33 33 32 31 29 29 29 29 29 28 28 28 29 29 27 27 27 29 30 34 38 38 37 36 35 35 34 33 33 33 32 32 32 32 32 32 32 32 33 33 33 33 33 33 33 33 33 33 33 33 33 33 33 33 32 32 32 33 33 34 34 35 35 35 35 36 36 36 36 37 37 37 37 37 37 38 38
38 38 38 36 36 35 34 33 32 33 32 31 30 29 29 29 28 28 28 29 29 29 29 27 26 25 26 29 33 37 36 35 34 34 33 33 33 32 32 31 31 31 31 31 32 32 32 32 32 32 32 32 32 33 33 33 32 32 32 32 33 33 32 32 31 31 32 32 33 33 34 34 34 35 35 35 35 35 36 36 36 36 37 37 37 37
37 36 35 34 33 33 32 31 32 33 31 31 30 29 29 28 27 26 25 27 28 28 27 26 25 24 24 27 32 35 34 34 34 34 34 34 33 32 31 31 31 31 31 31 31 31 31 31 30 30 31 31 32 32 32 31 31 31 31 31 32 32 32 31 31 31 31 32 32 33 33 34 34 34 34 34 34 35 35 35 35 36 36 36 36 36
35 34 33 32 32 31 31 30 31 31 30 30 30 30 29 29 27 25 24 24 24 24 25 25 24 24 23 23 26 30 31 30 31 32 33 34 34 33 32 31 31 30 30 30 30 30 30 29 29 29 30 31 31 31 31 31 30 30 30 31 31 31 31 31 31 31 31 32 32 33 33 34 34 34 34 34 34 34 34 35 35 35 35 36 36 36
35 33 32 30 30 31 31 30 29 28 27 29 29 29 29 28 27 26 25 24 24 24 24 24 24 24 23 21 23 26 31 30 29 28 29 29 30 31 33 32 31 30 29 29 30 29 29 29 29 29 30 30 31 31 30 30 30 30 30 31 31 30 31 31 31 31 31 31 32 33 33 33 34 34 34 34 34 34 34 34 34 34 35 35 35 36
34 33 31 29 29 29 30 30 28 26 24 26 26 26 26 26 26 26 26 25 24 24 24 23 23 23 23 22 22 24 28 30 31 30 31 29 28 29 32 32 32 32 29 29 29 29 28 28 29 29 30 30 30 30 30 30 30 31 31 31 31 31 31 31 31 31 31 31 31 31 32 32 33 33 33 33 33 33 33 33 33 33 34 34 35 35
32 31 30 29 27 27 27 28 27 25 24 24 24 24 24 24 25 25 26 24 24 23 23 23 22 22 23 23 23 23 24 24 25 27 29 29 29 29 30 31 32 32 30 29 29 29 28 28 29 29 29 29 29 29 29 30 30 30 31 31 31 31 32 32 31 31 31 31 31 31 31 32 32 32 32 32 32 32 32 33 33 33 33 33 34 35
31 29 28 27 27 27 26 26 26 25 24 25 25 25 25 23 22 23 25 24 23 23 22 22 21 20 21 21 22 23 22 21 21 21 21 23 24 25 25 26 28 29 29 30 31 30 30 29 29 30 30 29 29 29 29 29 30 30 30 31 31 31 32 32 32 32 32 32 32 32 32 32 32 32 32 32 32 32 32 32 32 33 33 33 33 34
28 27 26 26 26 26 26 26 26 26 25 25 25 25 25 23 21 20 21 21 22 21 20 20 20 20 20 20 21 22 21 21 21 20 20 20 20 20 20 21 22 23 23 24 26 28 31 31 31 31 31 31 31 30 29 29 30 30 30 31 31 32 32 32 32 32 32 32 33 33 33 33 33 32 32 32 32 32 32 32 32 32 32 33 33 34
27 26 27 27 26 25 24 25 25 25 24 23 23 23 23 21 20 20 20 20 20 19 19 19 20 20 20 20 20 20 20 20 20 20 20 20 19 18 19 20 21 20 20 20 21 24 30 30 29 28 31 32 32 31 31 30 30 30 31 31 32 32 32 32 32 32 32 32 33 33 33 33 33 32 32 32 32 32 32 32 32 32 33 33 34 34
27 27 27 27 26 24 23 24 24 23 22 21 20 20 20 20 20 20 20 20 19 18 18 18 19 20 21 20 20 19 19 20 20 20 20 20 18 17 16 19 20 20 19 20 21 23 28 26 24 23 25 28 30 32 33 33 32 30 31 31 32 32 32 32 32 32 32 32 32 33 33 33 33 33 32 32 32 32 32 32 32 33 33 34 34 34
25 26 27 26 25 24 22 22 22 22 21 20 20 20 20 20 20 19 19 19 18 17 18 19 19 19 20 21 21 20 19 20 20 20 20 20 19 17 15 18 20 20 20 21 21 21 22 21 21 21 23 27 30 31 30 31 30 30 31 31 31 32 32 32 32 33 33 33 33 33 33 33 33 33 33 32 32 32 32 32 33 33 33 34 34 34
24 25 25 24 24 23 21 21 20 20 20 19 19 19 20 19 18 18 18 17 17 17 18 17 17 17 18 20 22 21 20 20 19 18 18 19 20 18 15 19 20 20 20 20 20 20 20 21 21 22 24 30 32 31 29 29 29 30 31 31 31 31 32 32 32 33 33 33 33 33 33 33 33 33 33 33 32 32 32 32 33 33 33 34 34 35
23 23 23 24 23 22 20 20 19 18 18 19 19 18 17 16 16 16 16 17 17 17 16 16 16 16 15 18 20 20 19 19 19 18 18 19 19 18 16 17 19 20 19 20 20 20 20 19 20 21 25 29 29 29 28 29 29 30 30 31 31 31 32 32 32 33 33 33 33 33 32 32 32 33 33 33 33 33 33 33 33 33 33 34 34 35
22 21 22 23 22 21 20 20 20 20 20 20 19 19 18 17 16 16 16 16 16 16 15 15 15 15 15 17 19 19 17 18 19 19 18 19 19 18 16 18 20 20 19 20 21 21 20 19 22 26 31 30 29 29 29 29 29 30 30 30 31 31 32 32 33 33 33 33 33 32 32 32 32 32 33 33 33 33 33 33 33 33 33 34 34 35
22 21 21 22 21 20 20 21 22 22 22 22 21 20 18 17 16 16 16 15 15 15 15 15 15 15 15 17 19 19 17 18 19 18 16 17 18 17 15 17 19 19 18 19 19 19 18 17 20 24 29 29 29 29 29 29 29 29 30 30 31 31 32 32 32 32 33 33 33 33 32 32 32 32 32 33 33 33 33 33 33 33 33 34 34 35
22 21 20 21 21 21 21 21 22 23 24 23 20 18 17 16 16 16 15 15 14 14 14 16 16 17 17 18 19 18 16 18 19 18 15 16 17 17 16 16 16 16 18 19 19 18 18 17 17 20 27 29 30 29 29 29 29 29 29 30 30 30 31 31 31 32 32 32 33 33 33 33 33 33 33 33 33 33 33 33 33 33 33 34 34 35
23 21 19 18 20 23 24 21 23 25 25 22 21 21 20 18 17 17 15 15 15 16 18 18 18 18 18 18 19 18 14 18 19 18 16 16 17 17 17 16 16 16 18 19 18 17 17 17 18 21 27 30 30 29 29 29 29 29 29 29 30 30 30 30 30 31 31 31 31 32 32 33 33 33 33 33 33 33 33 34 34 34 34 34 34 35
22 21 18 17 18 21 23 21 22 24 24 22 23 23 20 20 20 20 18 17 17 18 17 17 17 17 17 17 17 16 16 18 19 19 18 17 18 18 16 16 16 17 18 19 18 18 17 19 20 22 27 30 31 29 29 29 29 29 29 29 29 30 30 30 30 30 30 30 30 31 31 31 32 32 33 33 33 34 34 35 35 35 35 35 35 35
21 20 19 19 19 20 21 22 21 21 21 21 20 19 18 20 20 20 20 19 18 17 16 16 16 17 17 18 18 17 17 17 17 18 19 18 18 17 16 16 18 19 20 20 18 18 18 19 20 22 24 29 30 30 29 29 29 29 29 29 29 29 29 29 30 30 30 30 30 30 30 31 31 31 31 32 32 33 33 34 35 35 35 35 35 35
23 22 22 22 23 24 24 24 24 23 22 20 20 20 21 23 23 21 19 18 17 17 17 17 17 17 15 19 19 17 16 15 15 17 18 17 16 15 15 16 17 18 20 19 18 17 18 20 20 20 20 24 28 29 29 29 29 29 29 29 29 29 29 29 29 29 30 30 30 30 30 31 31 31 31 31 31 32 32 33 33 34 34 35 35 35
27 27 27 29 30 31 31 30 30 29 28 26 24 24 24 24 22 21 19 18 18 18 18 16 15 15 14 14 15 17 17 15 15 16 18 17 17 16 15 15 16 17 19 18 18 19 20 20 20 19 19 20 25 29 29 29 29 29 29 29 29 29 29 29 29 29 29 30 30 30 30 31 31 31 31 31 31 31 31 32 32 33 33 33 34 34
32 33 33 33 33 33 33 33 32 32 32 30 28 26 24 21 20 20 18 17 17 17 17 15 14 14 14 14 15 16 17 18 17 16 17 18 17 17 16 15 16 16 18 18 19 20 24 22 21 20 19 18 22 26 28 29 29 29 29 29 29 29 29 29 29 29 29 29 30 30 30 30 30 31 31 31 31 31 31 31 31 32 32 32 33 33
33 33 33 33 33 33 33 32 32 32 32 32 31 30 26 22 20 19 18 16 16 16 16 15 15 15 15 15 15 15 15 18 18 17 16 18 18 17 16 15 15 15 16 17 19 21 24 22 20 18 17 18 20 24 26 28 29 29 29 29 29 29 29 29 29 29 29 29 29 29 29 30 30 30 30 30 31 31 31 31 31 31 31 32 32 32
33 33 33 33 33 33 33 32 32 31 31 31 32 31 29 23 21 20 18 17 16 16 17 16 16 15 15 14 14 15 15 17 19 19 17 18 18 16 15 15 15 15 16 16 17 18 19 19 17 15 15 20 22 23 23 25 27 28 28 29 29 29 29 29 29 29 29 29 29 29 29 29 30 30 30 30 30 30 31 31 31 31 31 31 30 29
27 28 28 29 29 29 28 27 29 30 30 30 31 31 29 24 21 20 18 18 18 17 16 16 16 15 14 13 14 15 15 17 18 19 18 18 17 16 14 15 15 14 15 15 16 16 16 18 17 17 17 21 22 21 20 22 24 24 24 26 27 28 29 28 28 28 28 28 29 29 29 29 29 29 29 30 30 30 30 30 30 30 31 29 28 26
21 22 21 20 20 20 21 22 24 26 28 29 29 29 26 22 20 19 19 19 19 18 16 16 16 15 15 15 15 15 15 16 19 20 17 18 17 15 14 15 15 13 13 15 15 15 15 17 18 19 18 19 19 20 21 22 22 21 20 22 24 25 28 28 28 28 28 28 28 28 29 29 29 29 29 29 30 30 30 30 30 30 31 29 28 27
19 20 19 18 16 16 18 19 19 19 21 23 24 25 25 23 21 19 19 19 19 18 17 16 15 15 15 15 15 15 16 16 20 22 19 18 16 15 13 14 14 14 14 14 15 15 14 15 17 18 16 17 18 19 21 23 21 20 20 20 21 23 26 27 27 27 28 28 29 29 29 29 29 29 29 29 29 30 30 30 30 29 30 29 28 27
19 18 16 17 16 15 16 15 15 16 18 18 19 20 21 23 23 22 20 19 19 19 18 17 15 15 14 14 15 15 16 16 20 23 23 18 16 15 12 13 13 13 13 14 13 13 13 13 14 15 15 16 17 19 20 22 22 20 19 20 20 21 24 25 26 26 27 28 28 28 29 29 29 29 29 30 30 30 30 30 30 30 29 29 29 28
18 17 16 15 15 14 15 13 14 15 17 17 18 19 18 20 22 23 21 20 20 20 19 19 17 15 14 13 14 15 16 17 21 26 26 19 16 15 13 13 13 12 12 13 12 12 12 12 12 14 16 17 18 18 18 19 20 20 17 19 19 20 22 23 23 24 24 25 24 24 25 26 28 29 29 30 30 30 30 30 30 30 30 30 30 29
16 17 16 15 14 15 15 14 14 15 17 17 18 19 19 19 19 20 21 20 20 19 19 19 19 18 17 15 15 16 17 17 22 27 26 20 17 15 14 13 13 13 13 12 12 12 12 12 14 15 16 17 17 17 17 17 17 18 17 19 20 20 20 20 20 21 22 22 21 21 21 22 24 26 28 29 30 29 29 29 29 29 29 30 30 29
15 16 15 14 14 15 16 16 16 17 17 17 16 17 18 18 17 18 18 19 20 20 20 19 19 19 19 18 18 17 18 17 21 25 26 20 17 17 15 15 14 14 14 13 13 12 12 13 15 17 18 16 15 16 17 17 17 17 18 20 20 20 19 19 19 18 18 19 20 20 20 21 23 24 26 29 29 29 29 29 29 29 29 29 29 29
16 16 15 12 12 14 16 15 15 16 16 16 15 15 17 16 16 17 16 16 17 19 21 21 20 20 20 18 18 19 18 18 19 22 24 20 18 17 16 15 16 17 15 15 14 14 14 14 15 16 16 15 14 14 16 17 17 17 18 19 20 19 18 18 18 18 17 19 20 21 22 22 23 24 26 28 29 29 28 28 29 29 29 29 29 29
16 16 15 12 12 12 14 14 15 16 17 16 16 16 16 14 14 15 15 13 14 15 17 18 19 20 23 22 20 17 16 16 16 18 20 17 17 17 17 16 17 19 17 16 15 15 14 14 14 14 14 13 15 17 19 18 18 17 17 19 19 18 17 17 17 17 17 19 21 23 24 24 23 22 23 24 24 24 24 24 26 28 29 28 28 29
15 15 14 13 13 13 13 14 15 16 16 16 16 15 14 14 15 15 14 13 13 14 13 15 16 15 15 17 20 21 19 15 14 13 14 14 15 16 18 16 16 17 17 16 15 15 15 14 13 13 13 13 14 15 17 16 16 16 16 18 18 17 17 17 18 19 20 19 20 22 23 20 20 19 19 19 20 20 21 21 24 26 26 25 25 27
15 14 14 16 15 14 13 16 16 16 15 16 17 18 16 16 15 15 15 15 15 14 11 12 13 14 15 17 20 21 21 17 16 15 11 11 13 15 18 17 16 16 16 14 14 15 15 15 15 16 16 15 15 15 16 15 16 18 20 19 18 18 20 20 19 17 18 16 17 18 19 18 18 19 19 19 19 19 20 20 20 22 24 22 20 20
15 15 14 16 17 17 17 18 17 15 15 15 15 15 16 16 15 15 16 16 15 15 15 15 15 15 13 11 11 13 16 16 17 16 10 10 11 14 18 18 17 16 15 15 14 15 16 15 15 17 19 18 18 18 18 17 19 20 22 20 18 18 20 22 21 19 17 15 15 16 20 20 21 22 20 21 20 19 20 19 19 20 23 21 19 18
19 17 15 15 15 15 15 14 15 15 15 13 13 14 15 15 15 14 15 15 15 14 13 14 15 15 14 14 12 11 10 12 15 16 12 10 11 13 16 17 18 18 17 15 15 16 18 18 18 19 19 19 19 19 17 18 19 20 21 20 19 20 22 21 17 14 14 15 15 16 21 21 20 20 20 20 19 19 21 20 20 23 25 21 18 16
18 17 15 14 14 14 15 16 16 16 15 14 13 13 13 14 15 16 17 15 14 14 14 14 14 14 14 13 12 12 11 9 10 13 15 10 10 12 15 16 17 17 18 17 16 17 18 21 22 20 19 19 19 19 19 19 20 20 20 20 20 20 19 17 14 12 14 17 18 17 18 19 18 18 19 20 20 20 20 23 25 27 28 24 20 18
16 15 14 12 12 13 15 15 14 14 14 14 14 14 12 12 14 16 15 13 12 13 12 11 11 11 11 11 11 12 12 10 9 10 14 15 14 12 14 14 15 16 19 18 19 19 20 21 21 20 18 19 20 20 19 19 19 18 18 19 20 20 18 17 17 17 18 19 19 19 17 18 18 17 19 20 20 20 19 20 20 20 24 24 22 20
13 14 13 13 14 14 14 13 13 12 12 13 13 12 12 12 14 16 15 12 12 12 11 11 12 13 11 10 11 11 11 11 11 12 12 18 21 21 16 14 15 16 20 20 20 20 20 20 20 20 20 20 20 20 20 19 19 19 20 20 20 20 19 19 19 19 19 18 18 18 16 17 16 17 17 17 17 18 18 19 19 19 20 21 21 21
12 12 11 12 12 13 14 13 12 11 11 12 12 12 11 11 12 14 15 12 11 10 9 10 12 14 13 13 11 10 10 11 13 14 14 15 17 20 20 18 17 19 20 21 21 20 21 20 20 20 20 20 20 20 20 20 19 19 18 19 19 18 18 18 18 18 17 17 17 17 17 15 15 16 18 18 18 18 18 19 19 20 20 20 20 20
11 11 10 10 11 11 11 11 11 10 11 12 12 11 11 10 10 11 13 12 11 10 11 11 12 12 13 12 11 10 11 11 12 12 13 15 17 20 22 21 21 22 22 23 23 23 23 22 22 21 20 20 20 20 20 20 20 19 17 17 17 17 17 17 17 17 16 18 18 17 15 15 15 16 18 18 18 18 17 19 20 20 20 20 20 20
13 13 12 11 11 10 10 10 9 10 11 11 11 11 11 10 11 11 10 10 11 12 14 11 11 11 11 11 11 11 13 12 12 13 15 14 15 18 22 23 24 24 24 24 24 24 24 24 24 23 22 20 20 19 19 19 19 18 17 18 18 18 18 18 17 16 16 17 17 16 16 17 17 17 18 18 18 19 19 20 21 22 22 22 22 21
13 12 12 11 10 10 10 10 9 9 11 11 11 10 10 12 16 17 11 10 10 12 13 13 12 12 12 11 11 13 15 14 13 13 14 14 15 16 20 23 24 24 24 25 25 25 25 25 25 24 24 22 21 20 20 19 18 18 18 19 19 19 19 19 19 18 18 17 16 15 16 18 19 20 20 19 20 21 21 22 22 22 23 23 23 22
12 12 13 12 11 10 10 10 11 11 11 11 11 10 9 9 11 13 12 11 11 11 11 12 13 13 14 12 12 13 14 12 12 12 13 15 15 16 18 22 24 24 24 23 24 24 24 24 25 26 26 25 24 23 21 20 19 19 20 20 19 18 18 19 19 19 19 19 17 17 17 18 20 20 20 20 21 22 22 22 22 22 21 21 22 22
14 13 12 11 11 11 11 11 11 12 12 12 12 12 10 9 10 10 10 11 11 11 11 12 13 15 15 15 15 15 15 13 13 13 14 15 16 18 20 22 23 23 22 21 21 21 21 21 21 21 22 26 27 25 23 22 21 20 20 18 17 16 16 17 18 19 20 20 19 18 17 17 18 20 20 21 22 22 21 21 21 20 20 20 20 21